Location: Gleizolles
(44.4833°N, 6.7667°E)
Time: 21:13:15
(UTC+00:00)

A-11 Canister half - Pass Details

Date: 03 July 2024
Orbit: 1524 x 1684 km, 47.3° (Epoch: 18 July)

Event Time Altitude Azimuth Distance (km) Brightness Sun altitude
Rises 15:53:45 0° 294° (WNW) 4,701 12.4 34.0°
Reaches altitude 10° 15:57:00 10° 288° (WNW) 3,705 12.3 33.4°
Maximum altitude 16:05:32 43° 221° (SW) 2,035 10.6 31.9°
Drops below altitude 10° 16:14:04 10° 154° (SSE) 3,694 10.8 30.4°
Sets 16:17:19 0° 148° (SSE) 4,686 11.2 29.8°
